Location: Austin
(30.3000°N, 97.7500°W)
Time: 00:26:47
(UTC-06:00)

NOAA 6 - Pass Details

Date: 04 November 2025
Orbit: 767 x 781 km, 98.6° (Epoch: 15 November)

Event Time Altitude Azimuth Distance (km) Brightness Sun altitude
Rises 19:17:13 0° 162° (SSE) 3,250 7.1 -21.2°
Reaches altitude 10° 19:19:32 10° 160° (SSE) 2,326 6.4 -21.6°
Maximum altitude 19:24:39 75° 76° (ENE) 808 3.9 -22.7°
Drops below altitude 10° 19:29:48 10° 351° (N) 2,336 6.5 -23.9°
Sets 19:32:07 0° 350° (N) 3,265 7.3 -24.4°
